Location: Carquefou
(47.2982°N, 1.4902°W)
Time: 21:35:11
(UTC+00:00)

Daily predictions for brighter satellites

Satellite Brightness Start Highest point End
(mag) Time Altitude Azimuth Time Altitude Azimuth Time Altitude Azimuth
Aureole 3 4.3 20:38:43 10° SSE 20:43:08 49° E 20:48:37 10° NNE
Cosmos 1758 3.5 20:41:19 10° NNW 20:45:16 76° W 20:49:12 10° S
Cosmos 2219 Rocket 2.3 20:43:37 10° NNW 20:49:21 89° ENE 20:55:02 10° SSE
ATLAS CENTAUR R/B 3.9 20:48:45 10° W 20:51:41 24° NW 20:54:42 10° NNE
BREEZE-M DEB (TANK) 3.4 20:48:17 10° WSW 20:51:50 83° SSE 21:04:19 10° ENE
CZ-4 R/B 4.3 20:52:47 10° WSW 20:54:21 12° W 20:55:56 10° WNW
ATLAS 2AS CENTAUR R/B 3.3 20:47:58 10° NW 20:54:28 49° WSW 21:00:46 10° SSE
Cosmos 1733 Rocket 3.2 20:53:10 10° NNW 20:57:37 79° W 21:02:02 10° S
NOSS 5 (C) 4.5 20:55:52 10° NW 20:59:02 60° NE 21:02:10 10° SE
Cosmos 1455 2.9 20:56:38 10° N 20:59:52 33° ENE 21:02:59 11° SE
Spot 2 Rocket 3.7 20:57:07 10° SSE 21:02:06 59° ENE 21:07:07 10° N
Cosmos 1655 Rocket 4.3 20:57:02 10° SSW 21:03:26 80° W 21:09:52 10° N
SPOT 3 Rocket 3.9 20:59:06 10° SE 21:04:06 53° ENE 21:09:08 10° N
Resurs 01 Rocket 4.2 21:05:04 10° SW 21:08:06 18° W 21:11:09 10° NW
Meteor 2-20 Rocket 4.5 21:05:14 10° N 21:11:24 71° E 21:17:17 10° SSE
SeaSat 1 2.8 21:08:35 11° SE 21:13:16 55° NE 21:18:05 10° NNW
Cosmos 2360 Rocket 3.7 21:13:59 10° NW 21:18:51 30° WSW 21:23:41 10° SSW
Cosmos 158 Rocket 4.3 21:13:48 10° NNW 21:19:00 57° ENE 21:23:25 13° SE
Cosmos 1953 2.2 21:15:34 10° N 21:19:22 66° E 21:22:42 13° SSE
Cosmos 1908 Rocket 3.7 21:15:20 10° N 21:19:37 58° ENE 21:23:22 13° SSE
COSMOS 2428 2.8 21:14:12 10° NNW 21:19:55 76° ENE 21:25:01 13° SSE
Cosmos 2208 Rocket 4.2 21:15:29 10° NNW 21:20:37 61° ENE 21:25:05 14° SE
Cosmos 1782 Rocket 4.5 21:19:30 10° N 21:23:29 34° ENE 21:26:41 14° SE
CENTAUR R/B 3.8 21:23:46 13° SE 21:26:11 16° ESE 21:29:49 10° ENE
Ariane Rocket 3.0 21:22:31 11° SSE 21:27:27 89° E 21:32:36 10° NNW
EXPRESS MD2 2.8 21:26:08 10° WNW 21:28:48 49° N 21:30:56 10° E
Cosmos 2084 Rocket 4.0 21:27:03 10° S 21:30:58 34° ESE 21:34:47 10° ENE
Cosmos 1486 Rocket 4.3 21:31:52 10° S 21:36:47 46° ESE 21:41:46 10° NNE
Cosmos 1315 Rocket 3.2 21:34:19 10° SSW 21:38:16 64° WNW 21:42:15 10° N
BREEZE-M DEB (TANK) 3.9 21:37:49 10° W 21:43:46 38° NNW 21:46:12 10° ENE
MetOp-A 4.2 21:40:03 16° SSE 21:44:10 62° ENE 21:49:16 10° N
GP-B 3.7 21:40:10 10° NNE 21:44:20 40° E 21:47:06 19° SSE
ARIANE 5 R/B 4.2 21:41:49 12° ESE 21:44:46 24° ENE 21:48:14 10° NNE
SJ 16-02 3.4 21:41:32 10° WSW 21:45:18 29° WNW 21:49:07 10° N
NOSS 0 Rocket 4.0 21:39:57 10° NNW 21:46:14 83° ENE 21:51:08 17° SSE
BlueWalker 3 3.1 21:43:22 10° W 21:46:59 44° NNW 21:50:35 10° ENE
Cosmos 371 Rocket 3.5 21:43:56 13° S 21:48:05 50° ESE 21:52:45 10° NNE
SL-4 R/B 2.5 21:45:27 10° WNW 21:49:08 42° SW 21:51:27 21° SSE
USA 234 3.4 21:45:03 10° ENE 21:51:23 50° SE 21:57:42 10° SSW
MOS 1 Rocket 4.1 21:46:19 10° S 21:51:27 55° W 21:56:28 10° NNW
Terra 2.8 21:48:10 10° S 21:52:39 42° W 21:57:08 10° NNW
Spot 1 4.3 21:51:28 10° NNE 21:56:13 74° ESE 22:00:41 13° S
Okean 1-7 3.9 21:52:18 10° SSW 21:56:29 48° WNW 22:00:40 10° N
SL-16 R/B 3.9 21:54:19 10° N 21:59:00 25° NE 22:03:41 10° ESE
H-2A R/B 4.5 21:56:27 11° ESE 21:59:09 18° ENE 22:02:00 10° NNE
Cosmos 1386 Rocket 4.5 21:54:35 12° S 22:00:27 80° E 22:06:36 10° N
Cosmos 2237 Rocket 2.4 21:55:22 10° NNW 22:01:01 66° ENE 22:05:00 20° SE
Landsat 5 3.4 21:57:31 10° NNE 22:01:42 80° ESE 22:05:09 15° S
Cosmos 1703 Rocket 3.9 21:57:28 10° SSW 22:01:53 67° W 22:06:19 10° N
COSMOS 2455 2.8 21:57:04 10° SSW 22:03:06 89° ESE 22:09:11 10° NE
Cosmos 1242 Rocket 3.4 22:01:40 10° SW 22:04:10 33° WNW 22:06:40 10° N
Cosmos 1745 Rocket 4.0 21:58:44 14° S 22:04:15 74° E 22:10:36 10° NNE
CZ-4C R/B 1.8 22:00:49 10° SW 22:05:17 88° ESE 22:10:57 10° NE
USA 281 4.0 22:00:04 13° ESE 22:05:34 42° NE 22:11:42 10° NNW
Cosmos 2227 Rocket 3.1 22:03:20 20° SSE 22:06:09 31° ESE 22:11:04 10° NE
Nadezhda 1 Rocket 4.0 22:02:07 10° N 22:08:24 88° W 22:13:03 19° S
Meteor 2-5 Rocket 4.4 22:05:17 20° SSE 22:08:52 42° E 22:14:15 10° NNE
Cosmos 773 Rocket 3.9 22:09:38 10° NNW 22:14:49 88° ENE 22:18:03 24° SSE
Cosmos 1980 3.7 22:09:51 10° NNW 22:15:34 87° ENE 22:19:14 23° SSE
Cosmos 304 Rocket 3.7 22:13:19 15° SSW 22:17:13 77° ESE 22:22:00 10° NNE
Cosmos 2297 Rocket 2.1 22:19:32 11° SSW 22:24:56 79° ESE 22:30:37 10° NNE
ALOS 2 4.3 22:25:43 15° ESE 22:28:12 23° ENE 22:31:39 10° NNE
Cosmos 2219 Rocket 4.4 22:29:19 10° WNW 22:32:27 15° W 22:35:35 10° SW
Cosmos 1455 4.5 22:31:45 10° NW 22:34:00 16° W 22:36:14 10° SW
Cosmos 1703 3.0 22:33:06 33° S 22:34:38 80° E 22:38:19 10° NNE
Cosmos 1408 2.9 22:33:29 24° SW 22:34:54 45° WNW 22:37:48 10° N
CZ-2C R/B 3.7 22:30:30 10° NNE 22:34:55 64° ESE 22:37:07 29° S
NOSS 3-2 (A) 4.0 22:33:40 25° SE 22:35:12 30° ESE 22:40:13 10° NE
Cosmos 2098 Rocket 4.0 22:28:54 10° N 22:35:24 67° ENE 22:38:52 26° SSE
Cosmos 2181 Rocket 4.3 22:32:11 10° N 22:38:14 54° ENE 22:41:46 25° SE
Cosmos 2219 4.1 22:37:54 25° SE 22:39:52 31° ESE 22:44:45 10° NE
Cosmos 1777 Rocket 4.0 22:39:06 18° SSW 22:43:03 88° ESE 22:48:22 10° NNE
Cosmos 332 Rocket 3.9 22:41:57 28° S 22:44:25 62° ESE 22:49:16 10° NNE
Cosmos 1825 3.0 22:44:58 28° ESE 22:45:22 28° E 22:48:21 10° NNE
BREEZE-M DEB (TANK) 3.9 22:42:21 10° WNW 22:45:27 71° N 22:54:38 10° E
Cosmos 2263 Rocket 3.4 22:44:08 22° SE 22:45:42 25° ESE 22:50:08 10° NE
Meteor 1-24 Rocket 3.7 22:42:46 24° S 22:46:18 81° E 22:51:50 10° NNE
Cosmos 2221 Rocket 4.3 22:46:44 30° SE 22:48:12 39° E 22:52:20 10° NNE
SeaSat 1 4.0 22:48:17 16° SSW 22:50:58 24° WSW 22:54:58 10° NW
Cosmos 1503 Rocket 4.3 22:48:35 13° SSW 22:53:21 66° WNW 22:58:37 10° NNE
Sich 1 Rocket 3.8 22:50:02 10° N 22:54:22 57° ENE 22:56:03 34° SE
Cosmos 2242 Rocket 4.3 22:52:19 19° SSW 22:55:26 51° WNW 22:59:55 10° N
Okean 1 Rocket 3.9 22:51:39 10° N 22:55:46 39° ENE 22:57:31 27° ESE
Cosmos 1538 Rocket 4.5 22:50:51 10° NNW 22:55:59 53° ENE 22:58:51 25° SE
PSLV R/B 3.7 22:53:18 10° NNE 22:57:17 78° ESE 22:58:44 38° S
Cosmos 1818 4.3 22:55:15 10° NNW 23:00:34 48° NE 23:04:38 17° ESE
Cosmos 1709 Rocket 4.4 22:58:04 17° SSW 23:03:01 62° WNW 23:09:18 10° N
Cosmos 1892 2.6 23:03:07 48° SE 23:03:43 56° E 23:07:11 10° NNE
Spot 4 3.9 23:03:31 33° SSE 23:05:40 73° ENE 23:10:31 10° N
Cosmos 1025 Rocket 4.0 23:12:05 28° ESE 23:13:11 32° E 23:17:00 10° NNE
CENTAUR R/B 2.4 23:10:49 17° SW 23:15:24 85° SE 23:22:29 10° NE
Cosmos 405 Rocket 3.4 23:13:25 10° NNW 23:17:01 43° W 23:18:05 34° SW
ARIANE 5 R/B 3.4 23:19:17 28° SW 23:20:57 40° W 23:25:05 10° NNW
Cosmos 1455 Rocket 4.2 23:20:52 10° N 23:24:58 34° ENE 23:26:44 25° ESE
BlueWalker 3 3.7 23:22:18 10° WNW 23:25:43 32° N 23:29:07 10° ENE
Cosmos 1328 3.9 23:25:24 46° SE 23:26:11 57° E 23:30:00 10° NNE
Cosmos 1898 Rocket 4.1 23:25:20 32° SE 23:26:53 40° ESE 23:31:42 10° NE
Cosmos 1378 Rocket 3.8 23:25:05 33° SSW 23:26:56 64° WNW 23:31:20 10° N
Aureole 1 Rocket 3.3 23:26:55 42° SE 23:27:49 50° ESE 23:32:36 10° NNE
Cosmos 2184 Rocket 4.0 23:26:26 31° S 23:29:44 76° E 23:36:08 10° NNE
Cosmos 1674 Rocket 3.6 23:29:17 36° SSW 23:30:56 69° W 23:35:15 10° N
H-2A R/B 2.9 23:32:26 38° SSW 23:33:43 53° W 23:37:49 10° NNW
USA 234 3.7 23:28:04 10° NE 23:34:32 64° NNW 23:40:59 10° WSW
SL-16 R/B 2.3 23:37:58 10° NNW 23:43:38 68° WSW 23:46:02 35° S
Cosmos 2237 Rocket 3.8 23:40:22 10° NW 23:44:33 21° W 23:46:48 17° SW
Cosmos 990 Rocket 4.2 23:45:21 26° SW 23:48:10 65° WNW 23:53:18 10° NNE
Cosmos 2154 Rocket 4.0 23:45:18 32° S 23:48:26 85° E 23:54:47 10° N
Cosmos 2227 Rocket 3.0 23:45:04 13° SW 23:49:59 47° NW 23:55:28 10° NNE
USA 281 3.7 23:46:56 28° SSW 23:50:01 46° WSW 23:56:20 10° NW
Cosmos 1943 3.9 23:44:36 10° NNW 23:50:05 50° ENE 23:53:53 19° SE
Cosmos 2082 3.6 23:50:39 34° SSW 23:53:12 77° ESE 23:58:49 10° NNE
USA 238 DEB 4.4 23:52:03 26° SE 23:53:50 31° ESE 23:59:29 10° NE
PSLV R/B 3.4 23:49:39 10° NNE 23:53:51 72° ESE 23:54:55 48° S
USA 238 4.4 23:52:05 26° SE 23:53:53 30° ESE 23:59:31 10° NE
CZ-4C R/B 4.4 23:50:20 10° W 23:54:33 26° NNW 23:59:39 10° NNE
Cosmos 292 Rocket 3.7 23:52:49 38° SSW 23:54:41 88° WNW 23:59:32 10° NNE
Okean 2 Rocket 4.2 23:50:37 10° NNW 23:54:42 35° W 23:56:12 27° SW
